www.pogodaiklimat.ru

Погода и климат >> Архив погоды >> Франция >> Канны


ПОГОДА в Каннах

  • Прогноз погоды в Каннах
  • Монитор погоды в Каннах

АРХИВ ПОГОДЫ в Каннах

Время (UTC), дата Ветер
(напр.,м/с)
 
Видим.   Явления Облачность Т
(С)
Тd
(С)
f
(%)
Тe
(С)
Тes
(С)
Комфортность P
(гПа)
Po
(гПа)
Тmin
(С)
Tmax
(С)
R
(мм)
R24
(мм)
S
(см)
16 18.06 В 1-1
{3}
35 км н/о +27.4 +17.8 56 +32 +32 очень
душно
1013.9 1013.4
17 18.06 ЮВ 1-2
{2}
50 км н/о +26.9 +15.3 49 +30 +30 душно 1013.9 1013.4
18 18.06 ЮВ 1-2
{2}
45 км н/о +26.3 +14.7 49 +29 +29 жарко 1013.9 1013.4 +21.4 +28.5
19 18.06 ЮВ 1-1
{2}
60 км н/о +24.0 +16.8 64 +28 +28 душно 1013.9 1013.4
20 18.06 С 1-1
{1}
60 км н/о +22.5 +15.3 64 +26 +26 жарко 1014.1 1013.6
21 18.06 С 1-1
{1}
60 км н/о +20.7 +14.3 67 +25 +25 комфорт 1014.0 1013.5
22 18.06 С 1-1
{1}
60 км н/о +20.2 +13.9 67 +24 +24 комфорт 1014.2 1013.7
23 18.06 С 1-1
{1}
60 км н/о +18.8 +13.2 70 +21 +21 комфорт 1013.9 1013.4
00 19.06 С 1-1
{2}
60 км н/о +18.6 +12.6 68 +21 +21 комфорт 1013.4 1012.9
01 19.06 С 1-2
{2}
60 км н/о +17.6 +12.3 71 +19 +19 1013.4 1012.9
02 19.06 С 1-2
{2}
60 км 10/10
[]
+17.6 +12.1 70 +19 +19 1013.4 1012.9
03 19.06 С 1-2
{2}
50 км н/о +17.0 +11.9 72 +18 +18 1013.8 1013.3
04 19.06 С 1-2
{2}
50 км н/о +16.2 +11.8 75 +17 +17 1014.0 1013.5
05 19.06 С 1-2
{2}
60 км н/о +17.1 +12.0 72 +18 +18 1014.3 1013.8
06 19.06 С 1
{4}
40 км н/о +20.2 +13.4 65 +24 +24 комфорт 1014.2 1013.7 +16.1 +26.3
07 19.06 СЗ 1-1
{2}
19 км н/о +23.5 +16.3 64 +27 +27 душно 1014.4 1013.9
08 19.06 Ю 2-2
{2}
40 км н/о +25.2 +16.6 59 +29 +29 душно 1014.3 1013.8
09 19.06 Ю 2-3
{3}
19 км н/о +25.5 +18.4 65 +30 +30 душно 1014.2 1013.7
10 19.06 ЮВ 2-3
{3}
35 км н/о +25.2 +18.4 66 +30 +30 душно 1014.1 1013.6
11 19.06 ЮВ 2-4
{4}
30 км н/о +25.0 +18.2 66 +29 +29 душно 1014.0 1013.5
12 19.06 Ю 3-5
{5}
27 км н/о +26.6 +17.7 58 +31 +31 душно 1013.6 1013.1
13 19.06 Ю 3-4
{5}
20 км н/о +29.5 +13.3 37 +31 +31 жарко 1013.2 1012.7
14 19.06 ЮЗ 2-4
{5}
30 км н/о +30.4 +11.4 31 +31 +31 жарко 1012.7 1012.2
15 19.06 Ю 3-4
{4}
35 км н/о +30.1 +10.1 29 +30 +30 жарко 1012.5 1012.0
16 19.06 Ю 3-4
{5}
29 км н/о +29.7 +9.8 29 +30 +30 жарко 1012.1 1011.6
17 19.06 ЮЗ 2-3
{4}
45 км н/о +29.7 +9.8 29 +30 +30 жарко 1012.0 1011.5
18 19.06 Ю 2-2
{3}
55 км н/о +27.1 +9.0 32 +27 +27 жарко 1012.0 1011.5 +20.3 +31.1
19 19.06 Ю 2-2
{3}
60 км н/о +25.2 +9.1 36 +26 +26 жарко 1012.4 1011.9
20 19.06 ЮЗ 1-1
{4}
18 км н/о +22.4 +10.8 48 +24 +24 комфорт 1012.9 1012.4
21 19.06 С 1-1
{2}
60 км н/о +20.6 +11.8 57 +24 +24 комфорт 1013.0 1012.5
22 19.06 С 1-1
{1}
60 км н/о +19.1 +11.6 62 +21 +21 комфорт 1012.9 1012.4
23 19.06 С 1-2
{2}
60 км н/о +18.0 +11.1 64 +19 +19 1012.9 1012.4
00 20.06 С 1-2
{2}
60 км н/о +17.8 +10.4 62 +19 +19 1013.0 1012.5
01 20.06 С 1-2
{2}
60 км н/о +16.8 +9.9 64 +18 +18 1013.0 1012.5
02 20.06 С 1-2
{2}
60 км н/о +15.8 +9.7 67 +17 +17 1012.6 1012.1
03 20.06 С 1-2
{2}
60 км н/о +15.1 +9.7 70 +16 +16 1012.8 1012.3
04 20.06 С 1-1
{2}
60 км н/о +15.0 +9.6 70 +16 +16 1013.3 1012.8
05 20.06 С 1-2
{2}
19 км н/о +16.3 +10.4 68 +17 +17 1013.7 1013.2
06 20.06 С 1
{5}
40 км н/о +19.7 +12.2 62 +22 +22 комфорт 1013.7 1013.2 +14.8 +26.9
07 20.06 СЗ 1-1
{2}
40 км н/о +23.2 +15.8 63 +28 +28 душно 1014.0 1013.5
08 20.06 Ю 1-2
{2}
45 км н/о +24.0 +17.3 66 +28 +28 душно 1013.8 1013.3
09 20.06 Ю 2-3
{3}
55 км н/о +23.9 +17.9 69 +28 +28 душно 1013.4 1012.9
10 20.06 Ю 2-3
{3}
19 км н/о +24.2 +17.9 68 +28 +28 душно 1013.5 1013.0
11 20.06 Ю 2-3
{3}
45 км н/о +25.1 +17.6 63 +29 +29 душно 1013.6 1013.1
12 20.06 Ю 2-3
{3}
40 км н/о +24.7 +18.2 67 +29 +29 душно 1013.3 1012.8
13 20.06 Ю 2-3
{4}
45 км 10/10
[]
+23.1 +16.6 67 +28 +28 душно 1013.0 1012.5
14 20.06 ЮВ 2-3
{4}
45 км н/о +24.5 +17.2 64 +28 +28 душно 1012.8 1012.3
15 20.06 ЮВ 2-3
{4}
40 км н/о +24.2 +19.1 73 +29 +29 душно 1012.8 1012.3
16 20.06 Ю 2-2
{3}
50 км н/о +23.1 +18.4 75 +29 +29 очень
душно
1012.8 1012.3
17 20.06 Ю 2-3
{3}
30 км н/о +22.9 +19.1 79 +29 +29 очень
душно
1012.7 1012.2
18 20.06 Ю 1
{5}
40 км н/о +22.0 +19.2 84 +27 +27 душно 1013.1 1012.6 +19.8 +25.2
19 20.06 ЮВ 1-2
{2}
30 км н/о +21.4 +19.0 86 +26 +26 душно 1013.2 1012.7
20 20.06 ЮВ 1-1
{2}
18 км н/о +21.2 +18.6 85 +26 +26 душно 1014.0 1013.5
21 20.06 С 1-1
{1}
21 км н/о +20.1 +18.2 89 +25 +25 комфорт 1014.2 1013.7
22 20.06 С 1-2
{2}
19 км н/о +19.5 +17.8 90 +23 +23 комфорт 1014.0 1013.5
23 20.06 штиль 0-1
{1}
19 км н/о +19.1 +17.6 91 +21 +21 комфорт 1014.3 1013.8
00 21.06 С 1-2
{2}
19 км н/о +18.2 +16.7 91 +20 +20 1014.2 1013.7
01 21.06 С 1-2
{2}
17 км н/о +17.6 +16.5 93 +19 +19 1014.2 1013.7
02 21.06 С 1-2
{2}
19 км н/о +17.4 +16.1 92 +18 +18 1014.0 1013.5
03 21.06 С 1-2
{2}
19 км н/о +17.0 +15.5 91 +18 +18 1013.9 1013.4
04 21.06 С 1-2
{2}
22 км н/о +16.9 +15.2 90 +18 +18 1014.3 1013.8
05 21.06 С 1-2
{2}
19 км н/о +17.8 +15.8 88 +19 +19 1014.5 1014.0
06 21.06 С 1
{3}
14 км н/о +20.5 +17.5 83 +25 +25 комфорт 1014.7 1014.2 +16.9 +21.9
07 21.06 В 1-1
{2}
55 км н/о +24.0 +17.3 66 +28 +28 душно 1015.0 1014.5
08 21.06 СВ 1-2
{2}
55 км н/о +25.0 +13.5 49 +27 +27 жарко 1014.7 1014.2
09 21.06 В 1-3
{3}
60 км н/о +26.7 +11.2 38 +28 +28 жарко 1014.7 1014.2
10 21.06 ЮВ 3-4
{4}
60 км н/о +26.1 +14.5 49 +29 +29 жарко 1015.1 1014.6
11 21.06 Ю 2-4
{4}
55 км н/о +25.4 +17.8 63 +30 +30 душно 1015.3 1014.8
12 21.06 Ю 3-4
{4}
45 км н/о +25.6 +18.3 64 +30 +30 душно 1014.7 1014.2
13 21.06 ЮВ 3-4
{5}
19 км н/о +25.5 +19.4 69 +31 +31 очень
душно
1014.6 1014.1
14 21.06 Ю 3-4
{4}
35 км н/о +25.9 +19.5 68 +31 +31 очень
душно
1014.5 1014.0
15 21.06 Ю 2-3
{4}
50 км н/о +26.0 +19.9 69 +32 +32 очень
душно
1013.7 1013.2
16 21.06 Ю 2-3
{4}
30 км н/о +25.2 +19.6 71 +31 +31 очень
душно
1013.5 1013.0
17 21.06 Ю 2-2
{3}
40 км н/о +25.4 +19.1 68 +30 +30 душно 1013.3 1012.8
18 21.06 Ю 2-2
{3}
35 км н/о +23.9 +18.8 73 +29 +29 душно 1013.8 1013.3 +20.5 +27.2
19 21.06 ЮВ 1-2
{3}
25 км н/о +22.7 +19.5 82 +29 +29 очень
душно
1014.4 1013.9
20 21.06 С 1-1
{2}
27 км н/о +22.0 +18.6 81 +27 +27 душно 1014.5 1014.0
21 21.06 штиль 0-1
{2}
19 км н/о +21.4 +17.8 80 +26 +26 душно 1014.3 1013.8
22 21.06 С 1-2
{2}
18 км н/о +20.2 +17.4 84 +24 +24 комфорт 1014.5 1014.0
23 21.06 С 1-1
{2}
28 км н/о +19.5 +17.1 86 +23 +23 комфорт 1014.5 1014.0
00 22.06 СЗ 1-2
{2}
40 км 9/0
[]
+19.2 +16.2 83 +22 +22 комфорт 1013.7 1013.2
01 22.06 С 1-2
{2}
35 км н/о +18.5 +15.6 83 +20 +20 1013.3 1012.8
02 22.06 С 1-2
{2}
35 км н/о +18.4 +15.5 83 +20 +20 1013.3 1012.8
03 22.06 С 1-2
{2}
40 км н/о +18.5 +14.6 78 +21 +21 комфорт 1013.1 1012.6
04 22.06 С 1-2
{2}
40 км н/о +18.0 +14.3 79 +20 +20 1013.3 1012.8
05 22.06 С 1-2
{2}
40 км н/о +18.5 +14.8 79 +20 +20 1013.1 1012.6
06 22.06 С 2
{5}
35 км н/о +21.3 +14.5 65 +24 +24 комфорт 1013.1 1012.6 +17.8 +23.9
07 22.06 штиль 0-1
{2}
20 км н/о +25.7 +14.8 51 +28 +28 жарко 1013.4 1012.9
08 22.06 Ю 2-3
{3}
60 км н/о +25.3 +16.4 58 +29 +29 душно 1013.8 1013.3
09 22.06 Ю 2-3
{3}
60 км н/о +25.5 +16.9 59 +29 +29 душно 1013.8 1013.3
10 22.06 Ю 2-3
{3}
50 км н/о +26.8 +17.3 56 +31 +31 душно 1013.9 1013.4
11 22.06 Ю 3-4
{4}
45 км н/о +26.0 +18.2 62 +31 +31 очень
душно
1013.5 1013.0
12 22.06 Ю 3-4
{4}
35 км н/о +26.0 +18.7 64 +31 +31 очень
душно
1013.7 1013.2
13 22.06 ЮВ 2-4
{4}
19 км н/о +25.7 +18.6 65 +31 +31 очень
душно
1013.8 1013.3
14 22.06 С 2 19 км дождь 10/3 800 м
[]
+22.7 +13.7 57 +26 +31 жарко 1014.0 1013.5 0.0
15 22.06 З 1
{5}
19 км 10/10 600 м
[]
+21.7 +19.3 86 +27 +31 душно 1013.7 1013.2 2
16 22.06 С 1-2
{3}
19 км 9/9
[]
+24.9 +18.1 66 +29 +30 душно 1013.4 1012.9
17 22.06 штиль 0 50 км 10/10 2000 м
[]
+25.1 +17.8 64 +29 +29 душно 1013.2 1012.7
18 22.06 Ю 1-2
{2}
40 км н/о +24.1 +18.7 72 +29 +29 душно 1013.3 1012.8 +20.0 +26.9
19 22.06 В 1-1
{1}
28 км н/о +23.3 +18.4 74 +29 +29 душно 1013.4 1012.9
20 22.06 З 1-1
{1}
9000 м н/о +20.9 +18.5 86 +27 +27 душно 1013.9 1013.4
21 22.06 С 1-2
{2}
19 км н/о +20.1 +18.2 89 +24 +24 комфорт 1014.3 1013.8
22 22.06 С 1-2
{2}
10 км н/о +19.6 +18.3 92 +23 +23 комфорт 1014.3 1013.8
23 22.06 С 1-2
{2}
17 км н/о +19.0 +17.7 92 +22 +22 комфорт 1014.1 1013.6
00 23.06 С 1-2
{2}
16 км н/о +18.3 +17.1 93 +20 +20 1014.2 1013.7
01 23.06 С 1-1
{2}
16 км н/о +17.7 +16.4 92 +19 +19 1014.1 1013.6
02 23.06 С 1-1
{2}
19 км н/о +17.1 +16.0 93 +19 +19 1014.1 1013.6
03 23.06 С 1-2
{2}
19 км н/о +16.8 +15.3 91 +18 +18 1014.0 1013.5
04 23.06 С 1-2
{2}
21 км н/о +16.5 +15.4 93 +17 +17 1013.9 1013.4
05 23.06 С 1-2
{2}
26 км н/о +17.5 +15.5 88 +19 +19 1014.1 1013.6
06 23.06 С 1
{4}
35 км н/о +20.0 +16.0 78 +24 +24 комфорт 1014.0 1013.5 +16.4 +24.1
07 23.06 СВ 1-1
{1}
45 км н/о +23.4 +16.9 67 +29 +29 душно 1014.3 1013.8
08 23.06 Ю 1-2
{2}
50 км н/о +24.0 +16.3 62 +27 +27 жарко 1014.5 1014.0
09 23.06 Ю 2-3
{3}
40 км н/о +25.2 +17.4 62 +29 +29 душно 1014.8 1014.3
10 23.06 ЮВ 2-3
{4}
40 км н/о +25.2 +17.9 64 +30 +30 душно 1015.3 1014.8
11 23.06 Ю 2-3
{3}
35 км н/о +25.2 +18.9 68 +30 +30 душно 1015.4 1014.9
12 23.06 Ю 2-3
{3}
35 км н/о +24.9 +18.8 69 +30 +30 душно 1015.4 1014.9
13 23.06 Ю 2-3
{4}
35 км н/о +25.5 +19.2 68 +31 +31 очень
душно
1015.4 1014.9
14 23.06 ЮВ 2-3
{4}
35 км н/о +25.8 +19.9 70 +32 +32 очень
душно
1015.1 1014.6
15 23.06 Ю 2-3
{3}
35 км н/о +25.2 +19.3 70 +30 +30 душно 1015.2 1014.7
16 23.06 Ю 2-3
{3}
30 км н/о +24.2 +19.9 77 +30 +30 очень
душно
1015.2 1014.7
17 23.06 ЮВ 1-2
{3}
30 км н/о +23.7 +20.0 80 +29 +29 душно 1015.4 1014.9
18 23.06 Ю 1
{4}
60 км н/о +23.3 +18.8 76 +30 +30 очень
душно
1015.5 1015.0 +19.9 +26.4
19 23.06 Ю 1-1
{2}
60 км н/о +22.8 +19.0 79 +29 +29 очень
душно
1015.6 1015.1
20 23.06 З 1-1
{1}
55 км н/о +22.1 +18.7 81 +27 +27 душно 1016.1 1015.6
21 23.06 С 1-1
{1}
55 км н/о +20.8 +17.6 82 +26 +26 душно 1016.7 1016.2
22 23.06 С 1-1
{1}
40 км н/о +20.0 +17.8 87 +24 +24 комфорт 1017.3 1016.8
23 23.06 С 1-1
{2}
1500 м дымка н/о +19.3 +17.6 90 +23 +23 комфорт 1017.3 1016.8
00 24.06 С 1-2
{2}
5000 м н/о +18.6 +17.1 91 +21 +21 комфорт 1017.3 1016.8
01 24.06 С 1-2
{2}
30 км н/о +18.1 +16.6 91 +19 +19 1017.2 1016.7
02 24.06 С 1-2
{2}
30 км н/о +17.9 +16.2 90 +19 +19 1017.1 1016.6
03 24.06 С 1-2
{2}
35 км н/о +17.7 +15.9 89 +19 +19 1017.2 1016.7
04 24.06 С 1-2
{2}
35 км н/о +17.3 +15.3 88 +18 +18 1017.4 1016.9
05 24.06 С 1-2
{2}
30 км н/о +18.7 +15.9 84 +21 +21 комфорт 1017.8 1017.3
06 24.06 С 2
{5}
45 км н/о +21.3 +16.7 75 +25 +25 комфорт 1018.0 1017.5 +17.2 +23.3
07 24.06 штиль 0-1
{2}
50 км н/о +25.3 +17.5 62 +29 +29 душно 1018.1 1017.6
08 24.06 Ю 1-2
{2}
60 км н/о +26.9 +18.2 59 +32 +32 очень
душно
1018.2 1017.7
09 24.06 Ю 1-1
{2}
60 км н/о +27.1 +17.6 56 +31 +31 душно 1018.1 1017.6
10 24.06 Ю 2-2
{3}
60 км н/о +26.8 +18.9 62 +32 +32 очень
душно
1018.3 1017.8
11 24.06 Ю 2-2
{2}
60 км н/о +27.8 +18.5 57 +33 +33 очень
душно
1018.2 1017.7
12 24.06 Ю 2-3
{3}
55 км н/о +28.5 +19.2 57 +34 +34 очень
душно
1018.1 1017.6
13 24.06 Ю 2-3
{3}
45 км н/о +29.0 +18.7 54 +34 +34 очень
душно
1018.0 1017.5
14 24.06 Ю 2-3
{3}
19 км н/о +29.1 +17.3 49 +33 +33 очень
душно
1017.9 1017.4
15 24.06 Ю 2-3
{3}
45 км н/о +29.0 +16.5 47 +32 +32 душно 1017.7 1017.2
16 24.06 Ю 2-2
{3}
50 км н/о +29.2 +16.4 46 +33 +33 очень
душно
1017.6 1017.1
17 24.06 ЮЗ 1-2
{2}
45 км н/о +28.6 +16.5 48 +32 +32 душно 1017.7 1017.2
18 24.06 Ю 1-1
{2}
60 км н/о +27.5 +16.1 50 +31 +31 душно 1017.7 1017.2 +21.4 +29.8
19 24.06 Ю 1-1
{1}
60 км н/о +25.4 +17.1 60 +29 +29 душно 1017.7 1017.2
20 24.06 штиль 0-1
{1}
55 км н/о +24.6 +17.1 63 +28 +28 душно 1018.1 1017.6
21 24.06 С 1-1
{1}
55 км н/о +23.3 +16.6 66 +28 +28 душно 1018.6 1018.1
22 24.06 С 1-2
{2}
19 км н/о +22.3 +15.9 67 +26 +26 жарко 1018.6 1018.1
23 24.06 С 1-2
{2}
60 км н/о +21.5 +15.3 68 +25 +25 комфорт 1018.8 1018.3
00 25.06 С 1-2
{3}
60 км н/о +21.3 +14.9 67 +24 +24 комфорт 1018.7 1018.2
01 25.06 С 1-2
{3}
60 км н/о +20.7 +14.6 68 +25 +25 комфорт 1018.6 1018.1
02 25.06 С 1-2
{2}
60 км н/о +20.9 +14.1 65 +25 +25 комфорт 1018.5 1018.0
03 25.06 С 1-2
{2}
60 км н/о +20.6 +13.8 65 +24 +24 комфорт 1018.7 1018.2
04 25.06 С 1-2
{3}
60 км н/о +20.4 +14.1 67 +24 +24 комфорт 1019.1 1018.6
05 25.06 С 1-2
{2}
50 км н/о +21.0 +14.9 68 +26 +26 душно 1019.8 1019.3
06 25.06 С 1
{4}
18 км н/о +24.0 +16.5 63 +27 +27 жарко 1020.3 1019.8 +20.2 +27.5
07 25.06 С 1-1
{2}
19 км н/о +28.1 +18.5 56 +33 +33 очень
душно
1020.6 1020.1
08 25.06 В 2-3
{3}
55 км н/о +31.6 +15.1 37 +34 +34 душно 1020.7 1020.2
09 25.06 ЮВ 2-3
{3}
60 км н/о +31.7 +14.4 35 +33 +33 жарко 1020.9 1020.4
10 25.06 В 2-3
{4}
19 км н/о +32.6 +15.1 35 +35 +35 душно 1020.9 1020.4
11 25.06 ЮВ 2-4
{4}
50 км н/о +32.1 +15.1 36 +34 +34 душно 1020.8 1020.3
12 25.06 ЮВ 2-3
{4}
45 км н/о +31.6 +15.5 38 +34 +34 душно 1020.9 1020.4
13 25.06 ЮВ 2-3
{4}
40 км н/о +31.7 +15.2 37 +34 +34 душно 1020.8 1020.3
14 25.06 Ю 2-3
{4}
40 км н/о +31.0 +14.6 37 +33 +33 душно 1020.5 1020.0
15 25.06 Ю 2-3
{3}
40 км н/о +31.6 +15.5 38 +34 +34 душно 1020.3 1019.8
16 25.06 Ю 2-2
{3}
50 км н/о +31.2 +15.6 39 +34 +34 душно 1020.0 1019.5
17 25.06 Ю 1-2
{2}
40 км н/о +31.6 +17.1 42 +35 +35 очень
душно
1019.9 1019.4

 

Местоположение метеостанции Канны (Франция): широта 43.53 долгота 6.95 высота над уровнем моря 8 м.

В архиве по умолчанию представлена погода в Каннах за последнюю неделю. Архивные данные за месяц целиком и за предыдущие месяцы, начиная с января 2011 года, Вы можете получить, выбрав интересующий диапазон дат из раскрывающегося списка и нажав кнопку "Ввод!".


*Определитесь, кто Вы:
робот инопланетянин человек

Внимание! Время в таблицах - всемирное. Для получения местного времени необходимо прибавить поправку, которая равна 1 ч.

Смотрите также архив погоды в соседних городах и на ближайших метеорологических станциях:

Погода в Антибе (Франция) (15 км)
Погода в Ницце (Франция) (24 км)
Погода на Мысе Камара (Франция) (43 км)
Погода в Ле-Люке (Франция) (49 км)
Погода на Острове Леван (Франция) (68 км)
Погода в Йере (Франция) (80 км)
Погода на Монте Маланотте (Италия) (88 км)
Погода в Тулоне (Франция) (95 км)
Погода на Мысе Кере (Франция) (97 км)
Погода в Шато-Арну-Сент-Обане (Франция) (97 км)

Пояснения к столбцам:

Ветер - указаны скорость ветра в м/с - средняя за 10 мин, порывы в срок и между сроками (в фигурных скобках) и направление, откуда дует ветер: С - северный, СВ - северо-восточный, В - восточный, ЮВ - юго-восточный, Ю - южный, ЮЗ - юго-западный, З - западный, СЗ - северо-западный.
Видимость - горизонтальная дальность видимости в метрах или километрах. При видимости от 1 до 10 км при отсутствии осадков обычно наблюдается дымка, при ухудшении видимости до 1 км и менее - туман. В сухую погоду видимость может ухудшаться дымом, пылью или мглою.
Явления - указаны атмосферные явления, наблюдавшиеся в срок или в последний час перед сроком; фигурными скобками обозначены явления, наблюдавшиеся между сроками (за 1-3 часа до срока); квадратными скобками обозначены град или гололедные отложения с указанием их диаметра в мм.
Облачность - указаны через наклонную черту общая и нижняя облачность в баллах и высота нижней границы облаков в метрах; квадратными скобками обозначены формы облаков: Ci - перистые, Cs - перисто-слоистые, Cc - перисто-кучевые, Ac - высококучевые, As - высокослоистые, Sc - слоисто-кучевые, Ns - слоисто-дождевые, Cu - кучевые, Cb - кучево-дождевые. Подробнее классификацию облаков см. в Атласе облаков (PDF).
T - Температура воздуха - температура, измеренная на высоте 2 м над землей.
Td - Температура точки росы - температура, при понижении до которой содержащийся в воздухе водяной пар достигнет насыщения.
f - Относительная влажность воздуха - влажноcть воздуха, измеренная на высоте 2 м над землей.
Te - Эффективная температура - температура, которую ощущает одетый по сезону человек в тени. Характеристика душности погоды. При расчете учитывается влияние влажности воздуха и скорости ветра на теплоощущения человека.
Tes - Эффективная температура на солнце - температура, которую ощущает человек, с поправкой на солнечный нагрев. Характеристика знойности погоды. Зависит от высоты солнца над горизонтом, облачности и скорости ветра. Ночью, в пасмурную погоду, а также при ветре 12 м/с и более поправка равна нулю.
P - Атмосферное давление - приведенное к уровню моря атмосферное давление.
Po - Атмосферное давление - измеренное на уровне метеостанции атмосферное давление.
Tmin - Минимальная температура - минимум температуры воздуха на высоте 2 м над землей.
Tmax - Максимальная температура - максимум температуры воздуха на высоте 2 м над землей.
R - Количество осадков - Количество выпавших осадков за период времени, мм. При наведении курсора мыши на число - период времени, за который выпало указанное количество осадков.
R24 - Количество осадков - Количество выпавших осадков за 24 часа, мм.
S - Снежный покров - Высота снежного покрова, см. При наведении курсора мыши на число - состояние снежного покрова и степень покрытия местности в баллах.